Address 0x7fcb4849e25fe18e3b393a9d996354dad7d3ad2e

Overview

Balance:
11.332799195375455156 AVAX

AVAX Value:
$1,087.90 (@ $96.00/AVAX)

Token:
Txn Hash Method
Block
From
To
Value [Txn Fee]
0x1d12d68755a435d08ac6804c2af2a544c33ce0062e760943a21af48808cf1e600x3dc8d5ce79184112021-12-07 8:29:463 mins ago0x7fcb4849e25fe18e3b393a9d996354dad7d3ad2eOUT Crabada: Game0 AVAX0.00572720527.5
0xadb4010ab37ac2fb974935cee7a4f9b82eb21d6e0fb411da8350bcc5906641740x3dc8d5ce79183962021-12-07 8:29:163 mins ago0x7fcb4849e25fe18e3b393a9d996354dad7d3ad2eOUT Crabada: Game0 AVAX0.001481067527.5
0xb75dc1239bb991c607266ce5407ad9270cf4dfcd2b6b120792211736648f56c20x3dc8d5ce79180022021-12-07 8:16:0317 mins ago0x7fcb4849e25fe18e3b393a9d996354dad7d3ad2eOUT Crabada: Game0 AVAX0.00572995527.5
0x4115c69bbd3b0624b58e36257297b403fbb006926d9c64485f0b93d363d930200x3dc8d5ce79179872021-12-07 8:15:3317 mins ago0x7fcb4849e25fe18e3b393a9d996354dad7d3ad2eOUT Crabada: Game0 AVAX0.005723492527.5
0x3b84950bb0cf7221fa06f9bc33d3c1a1bec304285fc319c442b28a0e909a55be0x3dc8d5ce79179732021-12-07 8:15:0418 mins ago0x7fcb4849e25fe18e3b393a9d996354dad7d3ad2eOUT Crabada: Game0 AVAX0.005735812527.5
0xe165f97eeb795e693faba9159ead921739183e9891eb5180f7805778a6a4fdbc0xe1fa763879179542021-12-07 8:14:2718 mins ago0x7fcb4849e25fe18e3b393a9d996354dad7d3ad2eOUT Crabada: Game0 AVAX0.012619275
0xb7ce496e98a8e08606a3bddc97eaeb8bc9af2869e089b0f544377f99d3e79ed70xe1fa763879179272021-12-07 8:13:3319 mins ago0x7fcb4849e25fe18e3b393a9d996354dad7d3ad2eOUT Crabada: Game0 AVAX0.012619275
0xa395b5f65d23e5add9032a729632374ec655619930e64d9770d41e69c2ddb84d0xe1fa763879178912021-12-07 8:12:1920 mins ago0x7fcb4849e25fe18e3b393a9d996354dad7d3ad2eOUT Crabada: Game0 AVAX0.0033538575
0x9c58effdec20e0d20ad4a299b8ccb9b09d9fdb103f6b2d1c16ee950e449978990xe1fa763879178632021-12-07 8:11:2121 mins ago0x7fcb4849e25fe18e3b393a9d996354dad7d3ad2eOUT Crabada: Game0 AVAX0.0033538575
0x32356fd0ceae160caf7a602ce001d3dd5393fe97c34c5f34c51cada6becc057f0xe1fa763879178342021-12-07 8:10:2722 mins ago0x7fcb4849e25fe18e3b393a9d996354dad7d3ad2eOUT Crabada: Game0 AVAX0.012619275
0x442c182a451a6b83aa16a7f99b7fe3c355adc6bf85b58ff5b904cc311b88d6100xe1fa763879178092021-12-07 8:09:3323 mins ago0x7fcb4849e25fe18e3b393a9d996354dad7d3ad2eOUT Crabada: Game0 AVAX0.0033538575
0x9b42d3f2252eef847d9705cce69b1ec2e4ab2e06d4c41c0b12a6a1e9494a1caf0xe1fa763879177882021-12-07 8:08:5424 mins ago0x7fcb4849e25fe18e3b393a9d996354dad7d3ad2eOUT Crabada: Game0 AVAX0.00336832575
0xc7727f9b7557bc692932260ff4fe5ab08679699e7b855fdb92e98c7b1256624d0xe1fa763879177702021-12-07 8:08:1724 mins ago0x7fcb4849e25fe18e3b393a9d996354dad7d3ad2eOUT Crabada: Game0 AVAX0.0033538575
0x838863c9976c2ed471908da55611e829242d1b4f3f50b1b2791f1374d32d048c0xe1fa763879177502021-12-07 8:07:3925 mins ago0x7fcb4849e25fe18e3b393a9d996354dad7d3ad2eOUT Crabada: Game0 AVAX0.0033538575
0xe4dd35161a658c6fe9be2ec497684e93b6a3528e32bf9adc6dc383e85275f6b90xe1fa763879177282021-12-07 8:06:5526 mins ago0x7fcb4849e25fe18e3b393a9d996354dad7d3ad2eOUT Crabada: Game0 AVAX0.0033538575
0x92df768daf4b7775cbb2a4afc5a3e08c2931650280f2caad5e2ad17fdcfb6c860xe1fa763879176822021-12-07 8:05:1927 mins ago0x7fcb4849e25fe18e3b393a9d996354dad7d3ad2eOUT Crabada: Game0 AVAX0.0033538575
0x820f4b2fa057361bfe3e6673b728ca3da05edff23179018d3f1ad092b70ce5ad0x312d7bbc79176312021-12-07 8:03:3929 mins ago0x7fcb4849e25fe18e3b393a9d996354dad7d3ad2eOUT Crabada: Game0 AVAX0.00373488527.5
0x7d8691590b80ee61adbfe6700e333d6d882159c87a3f5ca3c24d89ac922962950x312d7bbc79176062021-12-07 8:02:4930 mins ago0x7fcb4849e25fe18e3b393a9d996354dad7d3ad2eOUT Crabada: Game0 AVAX0.004338647527.5
0x068a32442f64bc8f9eb7aa453e6f9ef4506174cf8e2e83e9b327b7e2c052f21c0xe1fa763879175892021-12-07 8:02:1430 mins ago0x7fcb4849e25fe18e3b393a9d996354dad7d3ad2eOUT Crabada: Game0 AVAX0.0033538575
0xf2c04d7a42d2e6471900512594575a8a0c2880375715ae29a23ee0f69be261ad0xe1fa763879175812021-12-07 8:01:5931 mins ago0x7fcb4849e25fe18e3b393a9d996354dad7d3ad2eOUT Crabada: Game0 AVAX0.0033538575
0xb69eeeaff0398b0aa424245fb8e6adb77c6711e1f0e58faa1445b59d9800e97c0xe1fa763879174952021-12-07 7:59:0534 mins ago0x7fcb4849e25fe18e3b393a9d996354dad7d3ad2eOUT Crabada: Game0 AVAX0.0033538575
0x97b449fa18d9534583eba05762629aa213ef94887b8a395df22eadda25f618320xe1fa763879174792021-12-07 7:58:3434 mins ago0x7fcb4849e25fe18e3b393a9d996354dad7d3ad2eOUT Crabada: Game0 AVAX0.0033538575
0x01569ac704cdae5156eb491d2e4587ef2e7e961a1e7d3f9fb38bb86406e0ae8d0xe1fa763879174712021-12-07 7:58:1734 mins ago0x7fcb4849e25fe18e3b393a9d996354dad7d3ad2eOUT Crabada: Game0 AVAX0.0033538575
0x6c780c2b3c9fd9293a9b462aae274fb6195f4fd758bf2b43f5979c94937ef6ec0xe1fa763879174522021-12-07 7:57:3735 mins ago0x7fcb4849e25fe18e3b393a9d996354dad7d3ad2eOUT Crabada: Game0 AVAX0.0033538575
0x4b0dc0446b7d13258d20e44f647bb6b3213cd26b21a20ee96be51a8e47e48ac20xe1fa763879174292021-12-07 7:56:5036 mins ago0x7fcb4849e25fe18e3b393a9d996354dad7d3ad2eOUT Crabada: Game0 AVAX0.0033538575
[ Download CSV Export 
Latest 10 internal transactions
Parent Txn Hash Block From To Value
0xaf6011b246368aba1434ec2dbd62f7fa329723bec141013ad9de47e3ac94239378937632021-12-06 18:45:0213 hrs 48 mins ago Trader Joe: Router0x7fcb4849e25fe18e3b393a9d996354dad7d3ad2e2.966813159229572433 AVAX
0x9f32eb7754f5dc8b730acb0b04173c881b67b4bf9fb0c8e86e9b9532cdd1731e78864832021-12-06 14:52:1017 hrs 40 mins ago 0xed08e227644bae137daff340d755e668f835f1210x7fcb4849e25fe18e3b393a9d996354dad7d3ad2e2.70357105 AVAX
0xb9b77523a54e9411bbf86af4eb487a6909f2a1c29a36c89322b6fb8e05b5de6678723392021-12-06 7:01:441 day 1 hr ago Trader Joe: Router0x7fcb4849e25fe18e3b393a9d996354dad7d3ad2e1.717532383183144325 AVAX
0x033f1af4de8d6038c0dc2bcaa59b583298cda0e4ce10beca8ae185a9a21739c278614512021-12-06 0:57:051 day 7 hrs ago Trader Joe: Router0x7fcb4849e25fe18e3b393a9d996354dad7d3ad2e1.58677515611503769 AVAX
0x3b7b269d61c65981f4e2fb2f3b95b2ab1b63fe031bbc2d5898aa41aada45bdb678488702021-12-05 17:56:451 day 14 hrs ago Trader Joe: Router0x7fcb4849e25fe18e3b393a9d996354dad7d3ad2e5.161880449829177452 AVAX
0xfa656f2297652ccd6eab3ff5bbea633530068aedce5463b14ae6179f5db5b91575855242021-11-29 15:00:547 days 17 hrs ago 0xed08e227644bae137daff340d755e668f835f1210x7fcb4849e25fe18e3b393a9d996354dad7d3ad2e1.13570085 AVAX
0xc01f6c58572818b96621cdf574cd8e22ceddb6e152f7f862b76ea9b14e7c014373056772021-11-23 2:46:0914 days 5 hrs ago Trader Joe: Router0x7fcb4849e25fe18e3b393a9d996354dad7d3ad2e0.327249679083005559 AVAX
0x2dec0236e620d10769c7ce6b0bd6599483be7d04fde9b51576ab20364b1e11e373020102021-11-23 0:43:1114 days 7 hrs ago Trader Joe: Router0x7fcb4849e25fe18e3b393a9d996354dad7d3ad2e0.049500836305398384 AVAX
0x46f477aede3c61bbcb0e06f2aafb9b0ab22eb5f36ec5d99141d8f9aa33e3786c73020072021-11-23 0:43:0714 days 7 hrs ago Trader Joe: Router0x7fcb4849e25fe18e3b393a9d996354dad7d3ad2e0.59992668755640088 AVAX
0x741caa56296d48e54c67834504439fd7f44e48a1a4cd6967d3709476904506ff72813552021-11-22 13:09:0814 days 19 hrs ago 0xed08e227644bae137daff340d755e668f835f1210x7fcb4849e25fe18e3b393a9d996354dad7d3ad2e0.03015135 AVAX
[ Download CSV Export 
Loading

Contract Name:
0

Compiler Version
0

Optimization Enabled:
0

Other Settings:
-NA-
Block Transaction Gas Used Reward
Age Block Fee Address BC Fee Address Voting Power Jailed Incoming
Block Uncle Number Difficulty Gas Used Reward
Loading
Make sure to use the "Vote Down" button for any spammy posts, and the "Vote Up" for interesting conversations.